{"data":{"norad_id":64894,"epoch":"2026-09-19T22:14:35.845728Z","epoch_age_seconds":63926,"freshness":"FRESH","line1":"1 64894U 25155U   26262.92680377  .00040668  00000+0  69976-3 0  9992","line2":"2 64894  97.4583 237.2333 0005154 153.5008 206.6508 15.50980373 95618","mean_motion":15.50980373,"eccentricity":0.0005154,"inclination_deg":97.4583,"raan_deg":237.2333,"arg_perigee_deg":153.5008,"mean_anomaly_deg":206.6508,"bstar":0.00069976,"rev_number":9561,"period_min":92.844501778876,"perigee_km":410.36182062877,"apogee_km":417.36301362794,"semimajor_km":6791.9994171284,"source":"CELESTRAK","updated_at":"2026-09-20T09:00:45.267647Z"}}